Regional Weather Roundup
Issued by NWS

Home | Current Version | Previous Version | Text Only | Print | Product List | Glossary Off
Versions: 1 2 3 4 5 6 7 8 9 10 11 12 13 14 15 16 17 18 19 20 21 22 23 24 25 26 27 28 29 30 31 32 33 34 35 36 37 38 39 40 41 42 43 44 45 46 47 48 49 50

000
ASUS43 KMPX 180610
RWRMN
WEATHER ROUNDUP FOR MINNESOTA
NATIONAL WEATHER SERVICE TWIN CITIES/CHANHASSEN MN
1200 AM CST SUN FEB 18 2018


NOTE: "FAIR" INDICATES FEW OR NO CLOUDS BELOW 12,000 FEET WITH NO
SIGNIFICANT WEATHER AND/OR OBSTRUCTIONS TO VISIBILITY. N/A MEANS
CURRENT SKY AND/OR WEATHER CONDITIONS ARE NOT AVAILABLE.

MNZ060>063-068>070-180700-
   Twin Cities Metro

CITY           SKY/WX    TMP DP  RH WIND       PRES   REMARKS
TWIN CITIES    FAIR      22   7  52 CALM      30.08S
6HR MIN TEMP:  21; 6HR MAX TEMP:  31;

ST PAUL        FAIR      20   5  52 W3        30.10R
CRYSTAL        FAIR      17   6  62 CALM      30.06S
BLAINE         FAIR      18   7  62 CALM      30.06F
LAKEVILLE      FAIR      10   7  85 CALM      30.08S
EDEN PRAIRIE   FAIR      21   6  52 S3        30.07S
6HR MIN TEMP:  18; 6HR MAX TEMP:  31;

SOUTH ST PAUL  FAIR      17   6  62 CALM      30.09S
LAKE ELMO      FAIR      12   5  73 CALM      30.08S
$$
MNZ001>005-007-008-013>017-022>024-027-028-180700-
   Northwest Minnesota

CITY           SKY/WX    TMP DP  RH WIND       PRES   REMARKS
BEMIDJI        CLOUDY    11   5  76 CALM      29.95R
HALLOCK        FAIR       3  -2  78 S5        29.97S WCI  -6
WARROAD        FAIR      -6  -9  84 S3        29.96S
THIEF RVR FALL CLOUDY     9   1  70 CALM      29.99R
CROOKSTON      FAIR      10   3  72 E6        29.99S WCI   1
FOSSTON        FAIR       7   1  78 CALM      29.97R
DETROIT LAKES  FAIR       9   5  85 CALM      29.96S
MOORHEAD       FAIR      12   7  79 CALM      29.99R
PARK RAPIDS    FAIR       6  -1  73 CALM      29.95S
MAHNOMEN       FAIR       7   2  81 CALM      29.96R
$$
MNZ006-009>011-018-025>026-180700-
   North Central Minnesota

CITY           SKY/WX    TMP DP  RH WIND       PRES   REMARKS
BAUDETTE       CLOUDY    -1  -7  75 CALM      29.95R
FLAG ISLAND    FAIR      -2  -9  71 CALM      29.95R
INTL FALLS     FAIR       2  -8  63 NW5       29.96R WCI  -8
6HR MIN TEMP:   2; 6HR MAX TEMP:  16; 6HR PCP: TRACE;

WASKISH        CLOUDY     9   1  72 NE5       29.97R WCI   0
BIG FORK       MOCLDY     7   1  78 CALM      29.94S
LONGVILLE      CLOUDY     3   0  85 CALM      29.97S
GRAND RAPIDS   MOCLDY    11   3  70 SW5       29.98R WCI   3
CRANE LAKE     FAIR       9   0  66 NW6       29.97R WCI  -1
ORR            MOCLDY     7   1  78 W5        29.92R WCI  -2
COOK           CLOUDY     9   1  72 W5        29.95R WCI   0
WALKER         CLOUDY    11   3  70 SW5       29.95S WCI   3
$$
MNZ012-019>021-037-180700-
   Northeast Minnesota

CITY           SKY/WX    TMP DP  RH WIND       PRES   REMARKS
DULUTH         FAIR       9   0  67 W8        29.97R WCI  -3
6HR MIN TEMP:   8; 6HR MAX TEMP:  24;

ELY            FAIR       9   1  72 W3        29.92R
HIBBING        FAIR       6  -1  73 W3        29.95R
EVELETH        FAIR     N/A N/A N/A W3        29.96R
DULUTH HARBOR  FAIR      16   7  67 SW7       30.05R WCI   6
TWO HARBORS    FAIR      12   1  62 SW5       29.96R WCI   4
GRAND MARAIS     N/A     17   5  59 W7        29.96R WCI   8
G MARAIS ARPRT FAIR       7  -6  56 W5        29.86R WCI  -2
$$
MNZ029>031-032-039>041-046>048-054>057-064-180700-
   West Central Minnesota

CITY           SKY/WX    TMP DP  RH WIND       PRES   REMARKS
FERGUS FALLS   FAIR      12   7  79 SE5       29.98S WCI   4
WHEATON        CLOUDY    10   1  67 CALM      30.01S
MORRIS         CLOUDY    12   3  67 SE8       29.99S WCI   1
ALEXANDRIA     FAIR      12   5  73 S5        29.98F WCI   4
ELBOW LAKE     FAIR      13   5  73 E8        29.99S WCI   1
WADENA         FAIR       3  -2  78 S3        29.96F
GLENWOOD       FAIR      10   7  85 S6        30.00R WCI   1
APPLETON       CLOUDY    18  10  73 CALM      30.01S
BENSON         CLOUDY    16   7  67 CALM      30.01F
ORTONVILLE     CLOUDY    16   9  73 S6        30.00R WCI   7
MADISON        CLOUDY    21  16  79 CALM      30.02S
WILLMAR        FAIR      12   7  79 SE3       30.04F
$$
MNZ033>034-036-042>043-049>051-058-059-180700-
   Central Minnesota

CITY           SKY/WX    TMP DP  RH WIND       PRES   REMARKS
ST CLOUD       FAIR      11   5  77 S5        30.04S WCI   3
6HR MIN TEMP:  10; 6HR MAX TEMP:  26;

SAUK CENTRE    FAIR      10   4  77 S3        30.00F
PAYNESVILLE    FAIR      14   8  76 SE5       30.03S WCI   7
AITKIN         FAIR       7   1  78 CALM      29.99F
PINE RIVER     FAIR       1  -4  78 CALM      30.01F
BRAINERD       FAIR       5  -1  76 CALM      30.00S
STAPLES        FAIR       1  -2  85 CALM      29.97F
LONG PRAIRIE   FAIR      10   3  72 CALM      30.00S
LITTLE FALLS   FAIR       9   0  66 CALM      30.01F
LITCHFIELD     FAIR      16   9  73 S3        30.04F
BUFFALO        FAIR      15   7  70 CALM      30.06F
MAPLE LAKE     FAIR      14   8  78 CALM      30.05F
HUTCHINSON     FAIR      14   9  79 E3        30.05F
$$
MNZ037-044-045-052-053-180700-
   East Central Minnesota

CITY           SKY/WX    TMP DP  RH WIND       PRES   REMARKS
PRINCETON      FAIR      12   5  73 CALM      30.05R
MORA           FAIR       7   1  78 CALM      30.05S
CAMBRIDGE        N/A     12   3  67 S3        30.06R
RUSH CITY      FAIR      11   3  69 CALM      30.05S
MOOSE LAKE     FAIR      10   3  72 SW3       30.01R
HINCKLEY       FAIR      10   3  72 CALM      30.03F
CLOQUET        FAIR      12   1  62 SW6       30.00R WCI   3
MCGREGOR       FAIR      12   5  73 SW5       30.01R WCI   4
$$
MNZ071>073-080-081-089-090-097-098-180700-
   Southwest Minnesota

CITY           SKY/WX    TMP DP  RH WIND       PRES   REMARKS
MONTEVIDEO     MOCLDY    16   9  73 CALM      30.01F
GRANITE FALLS  CLOUDY    20  13  73 CALM      30.03F
CANBY          MOCLDY    23  17  78 SW7       30.02R WCI  15
MARSHALL       CLOUDY    21  16  81 SW12      30.03S WCI   9
REDWOOD FALLS  CLOUDY    17  11  77 SE3       30.02F
OLIVIA         CLOUDY    18  10  73 CALM      30.02F
PIPESTONE      CLOUDY    19  18  93 S5        30.00R WCI  13
WINDOM         CLOUDY    16   3  57 S6        30.04R WCI   7
WORTHINGTON    CLOUDY    16  15  96 S6        30.03S WCI   7
JACKSON        CLOUDY    16  14  93 S9        30.05R WCI   4
TRACY          CLOUDY    23  20  88 SW8       30.03R WCI  14
SLAYTON        CLOUDY    18  16  92 SW8       30.02S WCI   7
$$
MNZ065>067-074>077-082>085-091>093-180700-
   South Central Minnesota

CITY           SKY/WX    TMP DP  RH WIND       PRES   REMARKS
MANKATO        FAIR      13  10  88 SE7       30.05F WCI   3
NEW ULM        CLOUDY    18  12  79 CALM      30.03F
ST JAMES       CLOUDY    16  12  86 SE5       30.05F WCI   9
FAIRMONT       CLOUDY    13  11  92 S6        30.06F WCI   4
GLENCOE        FAIR      15  10  80 E3        30.04F
FARIBAULT      FAIR      10   7  85 CALM      30.08S
OWATONNA       FAIR      16  12  86 CALM      30.06F
WASECA         FAIR      12  10  92 CALM      30.08F
ALBERT LEA     FAIR      19  16  86 CALM      30.07R
$$
MNZ078>079-086>088-094>096-180700-
   Southeast Minnesota

CITY           SKY/WX    TMP DP  RH WIND       PRES   REMARKS
ROCHESTER      FAIR      19  17  92 NW6       30.06F WCI  11
6HR MIN TEMP:  16; 6HR MAX TEMP:  24;

RED WING       FAIR      12   5  73 N3        30.09S
STANTON        FAIR      10   3  74 S5        30.08S WCI   2
DODGE CENTER   FAIR      12   9  85 W3        30.06F
WINONA         FAIR      18  14  86 CALM      30.11R
AUSTIN         FAIR      16  12  86 CALM      30.07S
PRESTON        FAIR      21  18  90 W5        30.08F WCI  14
$$
ABBREVIATIONS USED IN REMARKS
   TC - TEMPERATURES IN CELSIUS
  WCI - WIND CHILL INDEX
   HX - HEAT INDEX
  VSB - VISIBILITY
$$




USA.gov is the U.S. government's official web portal to all federal, state and local government web resources and services.